This demonstration page uses our WeatherBlox Daily Observations layout. Learn more.

Left ArrowRight Arrow

40.92945, -100.16068

Hourly Observations for July 25, 2019

Temp ( °F °C ) Dew Point ( °F °C ) Humidity (%) Winds ( mph kmh ) Pressure ( in mb ) Visibility ( mi km ) Precip ( " mm )
12:15 am 00:15 Clear 72 22 57 14 61 61 SSE 12 19 29.95 1014 10 16 N/A
12:35 am 00:35 Clear 72 22 56 13.6 59 59 SSE 13 20 29.96 1015 10 16 N/A
12:55 am 00:55 Clear 71 21.7 56 13.5 60 60 S 12 19 29.96 1014 10 16 N/A
1:15 am 01:15 Clear 71 21.6 56 13.5 60 60 S 9 15 29.96 1014 10 16 N/A
1:35 am 01:35 Clear 71 21.6 56 13.1 59 59 S 14 22 29.96 1014 10 16 N/A
1:55 am 01:55 Clear 71 21.7 55 13 58 58 S 15 24 29.95 1014 10 16 N/A
2:15 am 02:15 Clear 71 21.5 55 13 59 59 S 12 19 29.95 1014 10 16 N/A
2:35 am 02:35 Clear 71 21.6 55 12.6 57 57 S 10 17 29.97 1015 10 16 N/A
2:55 am 02:55 Clear 70 21.3 55 12.8 59 59 S 13 20 29.96 1015 10 16 N/A
3:15 am 03:15 Clear 69 20.6 55 13 62 62 S 12 19 29.97 1015 10 16 N/A
3:35 am 03:35 Clear 68 20.1 55 13 64 64 S 10 17 29.95 1014 10 16 N/A
3:55 am 03:55 Clear 68 20 55 13 64 64 SSE 14 22 29.93 1014 10 16 N/A
4:10 am 04:10 Clear 67 19.5 56 13.3 68 68 SSE 13 20 29.93 1013 10 16 N/A
4:35 am 04:35 Clear 67 19.3 56 13.3 68 68 SE 10 17 29.94 1014 10 16 N/A
4:55 am 04:55 Clear 67 19.2 56 13.2 68 68 SSE 14 22 29.93 1014 10 16 N/A
5:55 am 05:55 Partly Cloudy 66 18.8 56 13.1 70 70 SSE 9 15 29.94 1014 10 16 N/A
6:15 am 06:15 Clear 66 18.9 55 12.8 68 68 SSE 8 13 29.94 1014 10 16 N/A
6:35 am 06:35 Sunny 66 19 55 12.6 67 67 S 7 11 29.95 1014 10 16 N/A
6:55 am 06:55 Sunny 66 18.9 55 12.8 68 68 N N/A 29.96 1015 10 16 N/A
7:15 am 07:15 Sunny 66 19 55 12.8 67 67 SSE 6 9 29.97 1015 10 16 N/A
7:35 am 07:35 Sunny 66 19 55 12.9 68 68 S 7 11 29.97 1015 10 16 N/A
7:55 am 07:55 Sunny 66 18.8 55 13 69 69 SSE 8 13 29.96 1015 10 16 N/A
8:15 am 08:15 Sunny 66 19 56 13.1 69 69 SSE 8 13 29.96 1015 10 16 N/A
8:35 am 08:35 Sunny 66 18.8 56 13.1 70 70 S 10 17 29.96 1015 10 16 N/A
8:55 am 08:55 Sunny 67 19.2 56 13.3 69 69 S 13 20 29.95 1014 10 16 N/A
9:15 am 09:15 Sunny 67 19.3 56 13.5 69 69 S 14 22 29.95 1014 10 16 N/A
9:35 am 09:35 Sunny 68 19.8 56 13.5 67 67 S 13 20 29.95 1014 10 16 N/A
9:55 am 09:55 Sunny 69 20.4 57 14.1 67 67 SSW 8 13 29.95 1014 10 16 N/A
10:15 am 10:15 Sunny 71 21.9 58 14.4 63 63 SSW 14 22 29.93 1013 10 16 N/A
10:35 am 10:35 Sunny 71 21.4 58 14.4 65 65 S 7 11 29.93 1014 10 16 N/A
10:55 am 10:55 Sunny 72 22.4 59 14.9 63 63 S 5 7 29.92 1013 10 16 N/A
11:15 am 11:15 Sunny 73 22.5 59 14.9 62 62 S 5 7 29.92 1013 10 16 N/A
11:35 am 11:35 Sunny 73 22.7 60 15.3 63 63 S 8 13 29.92 1013 10 16 N/A
11:55 am 11:55 Sunny 74 23.4 60 15.6 62 62 SSW 12 19 29.92 1013 10 16 N/A
12:15 pm 12:15 Sunny 75 23.7 61 16.3 63 63 S 13 20 29.91 1013 10 16 N/A
12:35 pm 12:35 Sunny 77 24.9 63 17.1 62 62 S 12 19 29.90 1013 10 16 N/A
12:55 pm 12:55 Sunny 76 24.5 62 16.6 62 62 S 9 15 29.91 1013 10 16 N/A
1:15 pm 13:15 Sunny 78 25.5 62 16.8 59 59 S 13 20 29.90 1012 10 16 N/A
1:35 pm 13:35 Sunny 79 26.2 62 16.5 55 55 S 16 26 29.89 1012 10 16 N/A
1:55 pm 13:55 Sunny 80 26.8 63 17.2 56 56 S 15 24 29.87 1012 10 16 N/A
2:15 pm 14:15 Sunny 80 26.7 63 17 55 55 S 13 20 29.88 1012 10 16 N/A
2:35 pm 14:35 Sunny 80 26.7 64 17.8 58 58 S 9 15 29.88 1012 10 16 N/A
2:55 pm 14:55 Sunny 82 27.6 63 17.1 53 53 S 16 26 29.87 1011 10 16 N/A
3:15 pm 15:15 Sunny 82 27.9 63 17.2 52 52 SSW 16 26 29.86 1011 10 16 N/A
3:35 pm 15:35 Partly Cloudy 82 27.6 63 17.3 53 53 S 14 22 29.86 1011 10 16 N/A
3:55 pm 15:55 Mostly Cloudy 80 26.9 63 17.4 56 56 S 13 20 29.86 1011 10 16 N/A
4:15 pm 16:15 Partly Cloudy 81 27.4 65 18.3 58 58 SSE 10 17 29.86 1011 10 16 N/A
4:35 pm 16:35 Sunny 83 28.3 66 18.9 57 57 SSE 9 15 29.85 1011 10 16 N/A
4:55 pm 16:55 Sunny 83 28.5 66 19 56 56 SSE 10 17 29.84 1011 10 16 N/A
5:15 pm 17:15 Sunny 83 28.2 64 18 54 54 S 12 19 29.84 1011 10 16 N/A
5:35 pm 17:35 Sunny 81 27.1 66 18.7 60 60 SSE 8 13 29.85 1011 10 16 N/A
5:55 pm 17:55 Sunny 83 28.5 67 19.4 58 58 SE 7 11 29.83 1010 10 16 N/A
6:15 pm 18:15 Sunny 80 26.7 65 18.5 61 61 SSE 9 15 29.85 1011 10 16 N/A
6:35 pm 18:35 Sunny 80 26.9 66 19.1 62 62 SSE 7 11 29.84 1011 10 16 N/A
6:55 pm 18:55 Sunny 81 27.2 66 18.9 61 61 SSE 9 15 29.83 1010 10 16 N/A
7:15 pm 19:15 Sunny 81 27 66 18.7 60 60 SE 7 11 29.83 1010 10 16 N/A
7:55 pm 19:55 Sunny 79 26 65 18.5 63 63 SE 8 13 29.84 1011 10 16 N/A
8:15 pm 20:15 Sunny 78 25.8 65 18.6 65 65 SE 6 9 29.84 1011 10 16 N/A
8:35 pm 20:35 Sunny 77 25.1 66 18.8 68 68 SE 6 9 29.85 1011 10 16 N/A
8:55 pm 20:55 Sunny 76 24.3 66 18.7 71 71 SE 6 9 29.87 1011 10 16 N/A
9:15 pm 21:15 Clear 74 23.6 66 18.7 74 74 SE 5 7 29.87 1012 10 16 N/A
9:35 pm 21:35 Clear 74 23.4 64 18 72 72 SE 7 11 29.87 1012 10 16 N/A
9:55 pm 21:55 Clear 73 22.8 64 17.8 74 74 SSE 7 11 29.89 1012 10 16 N/A
10:15 pm 22:15 Clear 71 21.8 64 17.8 78 78 SSE 7 11 29.90 1012 10 16 N/A
10:35 pm 22:35 Clear 71 21.6 63 17.3 77 77 SSE 7 11 29.90 1012 10 16 N/A
10:55 pm 22:55 Clear 71 21.4 63 17.1 77 77 SSE 7 11 29.90 1013 10 16 N/A
11:15 pm 23:15 Clear 71 21.6 62 16.7 74 74 SSE 8 13 29.91 1013 10 16 N/A
11:35 pm 23:35 Clear 71 21.5 62 16.4 73 73 SSE 8 13 29.91 1013 10 16 N/A
11:55 pm 23:55 Clear 71 21.9 61 16.1 70 70 S 8 13 29.92 1013 10 16 N/A

Powered by AerisWeather